• In Germany
  • List of Countries
  • For 7 days
  • Water Temperature
  • Satellite Maps
  • Weather Map
  • Weather Widgets
  • user-avatar
    Login

    Hourly Weather Kabul

    Today, 24 August, Thursday

    Time Temperature Precipitation Wind Pressure Humidity
    00:00 +24°C° 0 mm 1 mps 609 mmHg 38%
    01:00 +23°C° 0 mm 1 mps 609 mmHg 38%
    02:00 +23°C° 0 mm 1 mps 609 mmHg 39%
    03:00 +22°C° 0 mm 1 mps 608 mmHg 40%
    04:00 +21°C° 0 mm 1 mps 608 mmHg 40%
    05:00 +21°C° 0 mm 1 mps 608 mmHg 41%
    06:00 +22°C° 0 mm 1 mps 608 mmHg 37%
    07:00 +23°C° 0 mm 1 mps 609 mmHg 34%
    08:00 +24°C° 0 mm 1 mps 610 mmHg 30%
    09:00 +26°C° 0 mm 1 mps 610 mmHg 26%
    10:00 +27°C° 0 mm 1 mps 610 mmHg 23%
    11:00 +28°C° 0 mm 1 mps 611 mmHg 19%
    12:00 +29°C° 0 mm 2 mps 611 mmHg 17%
    13:00 +30°C° 0 mm 2 mps 611 mmHg 15%
    14:00 +31°C° 0 mm 2 mps 611 mmHg 13%
    15:00 +31°C° 0 mm 3 mps 611 mmHg 13%
    16:00 +31°C° 0 mm 3 mps 610 mmHg 13%
    17:00 +33°C° 0 mm 4 mps 610 mmHg 13%
    18:00 +30°C° 0 mm 3 mps 610 mmHg 15%
    19:00 +28°C° 0 mm 3 mps 610 mmHg 17%
    20:00 +27°C° 0 mm 3 mps 609 mmHg 20%
    21:00 +26°C° 0 mm 2 mps 609 mmHg 21%
    22:00 +25°C° 0 mm 2 mps 609 mmHg 23%
    23:00 +24°C° 0 mm 2 mps 609 mmHg 24%

    Tomorrow, 25 August, Friday

    Time Temperature Precipitation Wind Pressure Humidity
    00:00 +23°C° 0 mm 2 mps 609 mmHg 25%
    01:00 +21°C° 0 mm 2 mps 608 mmHg 25%
    02:00 +22°C° 0 mm 1 mps 608 mmHg 25%
    03:00 +21°C° 0 mm 1 mps 608 mmHg 25%
    04:00 +21°C° 0 mm 1 mps 608 mmHg 25%
    05:00 +20°C° 0 mm 1 mps 607 mmHg 25%
    06:00 +21°C° 0 mm 1 mps 608 mmHg 23%
    07:00 +23°C° 0 mm 1 mps 609 mmHg 20%
    08:00 +24°C° 0 mm 1 mps 610 mmHg 18%
    09:00 +25°C° 0 mm 1 mps 610 mmHg 16%
    10:00 +26°C° 0 mm 2 mps 610 mmHg 14%
    11:00 +28°C° 0 mm 2 mps 611 mmHg 12%
    12:00 +29°C° 0 mm 2 mps 610 mmHg 11%
    13:00 +30°C° 0 mm 2 mps 610 mmHg 10%
    14:00 +31°C° 0 mm 2 mps 610 mmHg 9%
    15:00 +31°C° 0 mm 3 mps 610 mmHg 9%
    16:00 +31°C° 0 mm 3 mps 610 mmHg 9%
    17:00 +32°C° 0 mm 4 mps 610 mmHg 9%
    18:00 +29°C° 0 mm 4 mps 609 mmHg 10%
    19:00 +27°C° 0 mm 3 mps 609 mmHg 12%
    20:00 +26°C° 0 mm 3 mps 609 mmHg 13%
    21:00 +25°C° 0 mm 3 mps 608 mmHg 14%
    22:00 +24°C° 0 mm 3 mps 608 mmHg 15%
    23:00 +23°C° 0 mm 2 mps 608 mmHg 16%

    Day after tomorrow, 26 August, Saturday

    Time Temperature Precipitation Wind Pressure Humidity
    00:00 +21°C° 0 mm 2 mps 608 mmHg 17%
    01:00 +20°C° 0 mm 2 mps 607 mmHg 17%
    02:00 +20°C° 0 mm 2 mps 607 mmHg 18%
    03:00 +19°C° 0 mm 2 mps 607 mmHg 19%
    04:00 +19°C° 0 mm 2 mps 607 mmHg 20%
    05:00 +18°C° 0 mm 2 mps 607 mmHg 20%
    06:00 +19°C° 0 mm 2 mps 608 mmHg 19%
    07:00 +21°C° 0 mm 2 mps 608 mmHg 17%
    08:00 +23°C° 0 mm 2 mps 609 mmHg 15%
    09:00 +24°C° 0 mm 2 mps 610 mmHg 14%
    10:00 +25°C° 0 mm 2 mps 610 mmHg 12%
    11:00 +27°C° 0 mm 2 mps 610 mmHg 11%
    12:00 +28°C° 0 mm 2 mps 610 mmHg 10%
    13:00 +29°C° 0 mm 2 mps 610 mmHg 9%
    14:00 +30°C° 0 mm 2 mps 610 mmHg 9%
    15:00 +30°C° 0 mm 3 mps 610 mmHg 9%
    16:00 +30°C° 0 mm 3 mps 610 mmHg 9%
    17:00 +30°C° 0 mm 3 mps 609 mmHg 9%
    18:00 +28°C° 0 mm 3 mps 609 mmHg 11%
    19:00 +27°C° 0 mm 3 mps 609 mmHg 13%
    20:00 +25°C° 0 mm 3 mps 609 mmHg 15%
    21:00 +24°C° 0 mm 3 mps 608 mmHg 16%
    22:00 +23°C° 0 mm 2 mps 608 mmHg 17%
    23:00 +21°C° 0 mm 2 mps 608 mmHg 18%

    27 August, Sunday

    Time Temperature Precipitation Wind Pressure Humidity
    00:00 +21°C° 0 mm 2 mps 608 mmHg 19%
    01:00 +20°C° 0 mm 2 mps 607 mmHg 19%
    02:00 +19°C° 0 mm 2 mps 607 mmHg 20%
    03:00 +19°C° 0 mm 2 mps 607 mmHg 21%
    04:00 +18°C° 0 mm 2 mps 607 mmHg 21%
    05:00 +18°C° 0 mm 2 mps 607 mmHg 21%
    06:00 +19°C° 0 mm 2 mps 608 mmHg 19%
    07:00 +21°C° 0 mm 1 mps 608 mmHg 17%
    08:00 +23°C° 0 mm 1 mps 609 mmHg 15%
    09:00 +24°C° 0 mm 1 mps 610 mmHg 13%
    10:00 +25°C° 0 mm 1 mps 610 mmHg 12%
    11:00 +27°C° 0 mm 2 mps 610 mmHg 10%
    12:00 +28°C° 0 mm 2 mps 610 mmHg 10%
    13:00 +29°C° 0 mm 2 mps 610 mmHg 9%
    14:00 +30°C° 0 mm 2 mps 610 mmHg 9%
    15:00 +30°C° 0 mm 2 mps 610 mmHg 9%
    16:00 +30°C° 0 mm 3 mps 610 mmHg 9%
    17:00 +30°C° 0 mm 3 mps 610 mmHg 9%
    18:00 +28°C° 0 mm 3 mps 610 mmHg 10%
    19:00 +27°C° 0 mm 3 mps 609 mmHg 12%
    20:00 +25°C° 0 mm 2 mps 609 mmHg 14%
    21:00 +24°C° 0 mm 2 mps 609 mmHg 16%
    22:00 +24°C° 0 mm 2 mps 609 mmHg 17%
    23:00 +23°C° 0 mm 2 mps 609 mmHg 18%

    28 August, Monday

    Time Temperature Precipitation Wind Pressure Humidity
    00:00 +21°C° 0 mm 2 mps 609 mmHg 20%
    01:00 +20°C° 0 mm 2 mps 609 mmHg 21%
    02:00 +21°C° 0 mm 1 mps 608 mmHg 22%
    03:00 +20°C° 0 mm 1 mps 608 mmHg 23%
    04:00 +20°C° 0 mm 1 mps 608 mmHg 23%
    05:00 +19°C° 0 mm 1 mps 608 mmHg 23%
    06:00 +21°C° 0 mm 1 mps 609 mmHg 21%
    07:00 +22°C° 0 mm 1 mps 610 mmHg 19%
    08:00 +23°C° 0 mm 1 mps 611 mmHg 16%
    09:00 +25°C° 0 mm 1 mps 611 mmHg 15%
    10:00 +26°C° 0 mm 1 mps 611 mmHg 13%
    11:00 +27°C° 0 mm 1 mps 611 mmHg 12%
    12:00 +28°C° 0 mm 2 mps 611 mmHg 11%
    13:00 +29°C° 0 mm 2 mps 611 mmHg 11%
    14:00 +30°C° 0 mm 2 mps 611 mmHg 10%
    15:00 +30°C° 0 mm 2 mps 611 mmHg 10%
    16:00 +30°C° 0 mm 3 mps 611 mmHg 10%
    17:00 +30°C° 0 mm 3 mps 611 mmHg 10%
    18:00 +29°C° 0 mm 3 mps 610 mmHg 11%
    19:00 +27°C° 0 mm 3 mps 610 mmHg 13%
    20:00 +26°C° 0 mm 3 mps 610 mmHg 15%
    21:00 +25°C° 0 mm 2 mps 610 mmHg 16%
    22:00 +24°C° 0 mm 2 mps 609 mmHg 17%
    23:00 +23°C° 0 mm 2 mps 609 mmHg 19%

    29 August, Tuesday

    Time Temperature Precipitation Wind Pressure Humidity
    00:00 +23°C° 0 mm 2 mps 609 mmHg 20%
    01:00 +21°C° 0 mm 2 mps 609 mmHg 21%
    02:00 +21°C° 0 mm 1 mps 608 mmHg 22%
    03:00 +21°C° 0 mm 1 mps 608 mmHg 23%
    04:00 +20°C° 0 mm 1 mps 608 mmHg 23%
    05:00 +20°C° 0 mm 1 mps 608 mmHg 24%
    06:00 +21°C° 0 mm 1 mps 609 mmHg 21%
    07:00 +22°C° 0 mm 1 mps 610 mmHg 19%
    08:00 +24°C° 0 mm 1 mps 611 mmHg 17%
    09:00 +25°C° 0 mm 1 mps 611 mmHg 16%
    10:00 +26°C° 0 mm 1 mps 612 mmHg 14%
    11:00 +28°C° 0 mm 1 mps 612 mmHg 13%
    12:00 +28°C° 0 mm 2 mps 612 mmHg 12%
    13:00 +29°C° 0 mm 2 mps 612 mmHg 12%
    14:00 +30°C° 0 mm 2 mps 611 mmHg 11%
    15:00 +30°C° 0 mm 2 mps 611 mmHg 11%
    16:00 +30°C° 0 mm 2 mps 611 mmHg 11%
    17:00 +30°C° 0 mm 3 mps 611 mmHg 10%
    18:00 +29°C° 0 mm 2 mps 611 mmHg 12%
    19:00 +27°C° 0 mm 2 mps 610 mmHg 13%
    20:00 +26°C° 0 mm 2 mps 610 mmHg 15%
    21:00 +25°C° 0 mm 2 mps 610 mmHg 17%
    22:00 +24°C° 0 mm 2 mps 610 mmHg 18%
    23:00 +23°C° 0 mm 1 mps 610 mmHg 20%
    Show more